This is the latest recevied weather packets stored in our database for station/object KY4EF. If no packets are shown the sender has not sent any weather packets the latest 10 day(s).
| Time | Temp. | Humidity | Pressure | Rain* | Wind** | Luminosity | Snow |
|---|---|---|---|---|---|---|---|
| 1777845629 | 17.78° C | 38% | 1015.5 hPa | 0 mm | - | 62 W/m² | - |
| 1777845327 | 18.33° C | 37% | 1015.3 hPa | 0 mm | - | 282 W/m² | - |
| 1777845024 | 18.33° C | 37% | 1015.2 hPa | 0 mm | - | 194 W/m² | - |
| 1777844722 | 18.89° C | 37% | 1015.5 hPa | 0 mm | - | 95 W/m² | - |
| 1777844418 | 18.89° C | 37% | 1015.3 hPa | 0 mm | - | 276 W/m² | - |
| 1777844117 | 19.44° C | 34% | 1015.5 hPa | 0 mm | - | 345 W/m² | - |
| 1777843813 | 19.44° C | 36% | 1015.5 hPa | 0 mm | - | 359 W/m² | - |
| 1777843511 | 19.44° C | 36% | 1015.5 hPa | 0 mm | - | 375 W/m² | - |
| 1777843208 | 18.89° C | 36% | 1015.7 hPa | 0 mm | - | 390 W/m² | - |
| 1777842905 | 18.89° C | 37% | 1015.5 hPa | 0 mm | - | 405 W/m² | - |
| 1777842600 | 18.89° C | 37% | 1015.6 hPa | 0 mm | - | 419 W/m² | - |
| 1777842297 | 19.44° C | 37% | 1015.7 hPa | 0 mm | - | 430 W/m² | - |
| 1777841992 | 19.44° C | 37% | 1015.6 hPa | 0 mm | - | 445 W/m² | - |
| 1777841689 | 19.44° C | 37% | 1015.8 hPa | 0 mm | - | 459 W/m² | - |
| 1777841385 | 20° C | 37% | 1015.9 hPa | 0 mm | - | 471 W/m² | - |
| 1777841083 | 19.44° C | 37% | 1015.8 hPa | 0 mm | - | 484 W/m² | - |
| 1777840779 | 19.44° C | 38% | 1015.8 hPa | 0 mm | - | 497 W/m² | - |
| 1777840477 | 20° C | 38% | 1015.9 hPa | 0 mm | - | 511 W/m² | - |
| 1777840174 | 20° C | 38% | 1015.9 hPa | 0 mm | - | 521 W/m² | - |
| 1777839872 | 20° C | 38% | 1015.8 hPa | 0 mm | - | 534 W/m² | - |
| 1777839570 | 19.44° C | 37% | 1015.9 hPa | 0 mm | - | 545 W/m² | - |
| 1777839267 | 20° C | 37% | 1016 hPa | 0 mm | - | 557 W/m² | - |
| 1777838965 | 20° C | 37% | 1016 hPa | 0 mm | - | 568 W/m² | - |
| 1777838660 | 20° C | 37% | 1016.3 hPa | 0 mm | - | 578 W/m² | - |
| 1777838357 | 21.67° C | 36% | 1016.1 hPa | 0 mm | - | 590 W/m² | - |
* Rain latest hour (hover to see other rain measurements)
** Current wind speed in m/s (hover to see current wind gust speed)